Starlink 6137

operational
NORAD ID: 57156 Int'l Des: 2023-090 Owner: SPXS Country: US Constellation: starlink
LEOCIRCULAR

Über Starlink 6137

Beschreibung wird geladen...

Live-Position

3D-Globus wird geladen...

Nächste Überflüge

Höhenverlauf

Altitude vs Time

uPlot chart will show altitude changes over time

Zweizeiliger Elementsatz

1 57156U 23090BH 25307.82867036 -.00007302 00000-0 -52555-3 0 9994
2 57156 43.0038 225.2588 0001327 262.2892 97.7800 15.02569124131630
Epoch: 3. Nov. 2025 • Age: 19 hours

Aktueller Status

Höhe 564.8 km
Geschwindigkeit 7.58 km/s
Subsatellitenpunkt -25.40°S, 76.48°W
Startdatum 23. Juni 2023
Alter 2.3 years
Typ internet

Technische Details

Klassifizierung Payload
Masse 305.00 kg
Trockenmasse 290.00 kg
Gesamtmasse 305.00 kg
Länge 0.20 m
Durchmesser 2.80 m
Spannweite 9.00 m
Form Box + pan
Hersteller SPXS
Bus-Typ Starlink
Phasenstatus In Orbit
Besitzer/Staat SPXS/US

Große Konstellationen

Loading constellations...